Hourly Data Report for November 28, 2021

TORONTO CITY
ONTARIO
Current Station Operator: ECCC - MSC

43°40'00.000" N
79°24'00.000" W
112.50 m
6158355
71508
XTO

Download Data

Hourly Data (November 2021)
Hourly Data Report for November 28, 2021
TIME
LST
Temp Definition
°C
Dew Point Definition
°C
Rel Hum Definition
%
Precip. Amount Definition
mm

Wind Dir Definition
10's deg

Wind Spd Definition
km/h
Visibility Definition
km
Stn Press Definition
kPa
Hmdx Definition


Wind Chill Definition


Weather Definition


00:00 -0.2 -5.1 69 0.0       99.71     LegendNANA
01:00 -0.5 -4.8 73 0.0       99.67     LegendNANA
02:00 -0.6 -4.2 77 0.1       99.63     LegendNANA
03:00 -0.7 -3.4 82 0.1       99.56     LegendNANA
04:00 -0.8 -2.7 87 0.3       99.49     LegendNANA
05:00 -0.9 -2.1 91 0.6       99.50     LegendNANA
06:00 -1.1 -2.5 90 0.4       99.49     LegendNANA
07:00 -1.0 -2.4 90 0.2       99.49     LegendNANA
08:00 -1.3 -2.6 91 0.6       99.48     LegendNANA
09:00 -1.2 -2.5 91 0.6       99.48     LegendNANA
10:00 -1.2 -2.7 90 0.6       99.47     LegendNANA
11:00 -0.5 -1.8 91 0.6       99.39     LegendNANA
12:00 -0.1 -1.3 92 0.9       99.33     LegendNANA
13:00 -0.2 -1.3 92 1.1       99.30     LegendNANA
14:00 -0.4 -1.6 92 1.2       99.30     LegendNANA
15:00 -0.4 -1.7 91 0.4       99.33     LegendNANA
16:00 -0.4 -2.0 89 0.1       99.39     LegendNANA
17:00 -0.5 -1.8 91 0.0       99.43     LegendNANA
18:00 -0.7 -2.2 89 0.0       99.52     LegendNANA
19:00 -0.8 -2.9 86 0.0       99.57     LegendNANA
20:00 -1.2 -3.3 85 0.0       99.64     LegendNANA
21:00 -1.5 -3.5 86 0.0       99.71     LegendNANA
22:00 -1.4 -3.9 83 0.0       99.77     LegendNANA
23:00 -1.7 -4.0 85 0.0       99.81     LegendNANA

Notes on Data Quality.

Legend

  • E = Estimated
  • M = Missing
  • NA = Not Available*
  • [empty] = Indicates an unobserved value
Date modified: